Regional Weather Roundup
Issued by NWS Jackson, KY

Home | Current Version | Previous Version | Text Only | Print | Product List | Glossary Off
Versions: 1 2 3 4 5 6 7 8 9 10 11 12 13 14 15 16 17 18 19 20 21 22 23 24 25 26 27 28 29 30 31 32 33 34 35 36 37 38 39 40 41 42 43 44 45 46 47 48 49 50

000
ASUS43 KJKL 210919
RWRJKL

EAST KENTUCKY HOURLY WEATHER ROUNDUP
NATIONAL WEATHER SERVICE JACKSON KY
500 AM EDT SUN SEP 21 2014

NOTE: "FAIR" INDICATES FEW OR NO CLOUDS BELOW 12,000 FEET WITH
NO SIGNIFICANT WEATHER AND/OR OBSTRUCTIONS TO VISIBILITY.

* THESE REPORTS ARE NOT UNDER NWS QUALITY CONTROL AND MAY NOT
  REPORT WEATHER SUCH AS PRECIPITATION AND FOG.

KYZ079-080-083-085-087-088-110-112-115-119-120-211000
...EASTERN KENTUCKY...

CITY           SKY/WX    TMP DP  RH WIND       PRES   REMARKS
JACKSON        CLEAR     65  61  87 CALM      29.95F
LONDON         CLEAR     65  61  87 CALM      29.97F
SOMERSET*      CLEAR     63  63 100 CALM      29.97S
MONTICELLO*    CLEAR     60  59  97 CALM      29.98F FOG
WILLIAMSBURG*  CLEAR    N/A N/A N/A CALM        N/A
MIDDLESBORO*   FOG       59  59 100 CALM      30.00F VSB 1
HARLAN APT*    CLOUDY    59  59 100 MISG      30.00F VSB<1/4
HAZARD APT*    SUNNY     64  63  94 SW3       29.96S
BLACK MTN*       N/A     61  57  88 SW6         N/A
PIKEVILLE APT* CLEAR     61  61 100 CALM      29.96S
BIG SANDY*     SUNNY     64  62  94 S3        29.94F
MOREHEAD APT*  MOSUNNY   70  63  78 SW12      29.93F
$$

KYZ035-036-041-042-044-050-067-078-099-211000
...CENTRAL KENTUCKY...

CITY           SKY/WX    TMP DP  RH WIND       PRES   REMARKS
MT STERLING*   CLEAR     64  63  94 SW8       29.93F
FLEMING/MASON* CLEAR     64  63  94 S8        29.90S
DANVILLE*      CLEAR     64  63  94 S7        29.95S
RICHMOND*      CLEAR     68  63  83 SW8       29.93F
LEXINGTON      CLEAR     69  64  84 SW9       29.91F
FRANKFORT      PTCLDY    68  64  87 SW7       29.89F
$$

KYZ091>093-OHZ055-061-077-WVZ005-015-034-035-042-211000
...SOUTHERN OHIO/WEST VIRGINIA...

CITY           SKY/WX    TMP DP  RH WIND       PRES   REMARKS
COVINGTON      CLOUDY    71  64  78 SW10      29.84F
COLUMBUS       MOCLDY    71  63  75 S9        29.80F
DAYTON         CLOUDY    71  65  81 SW17G25   29.80F
WILMINGTON     MOCLDY    68  63  84 SW13      29.82F
HUNTINGTON     CLEAR     65  63  93 S7        29.89F
CHARLESTON     CLEAR     63  61  93 CALM      29.91F
PINEVILLE*     FOG       59  59 100 MISG      30.03F VSB 3/4
BECKLEY        CLEAR     57  53  86 S6        30.00F
BLUEFIELD      CLEAR     60  53  77 W6        30.03F
$$

VAZ002-007-008-TNZ017-027-036-066-071-211000
...SOUTHWEST VIRGINIA/EAST TENNESSEE...

CITY           SKY/WX    TMP DP  RH WIND       PRES   REMARKS
WISE*          CLEAR     61  59  94 S3        30.03F
JONESVILLE*    CLOUDY    55  55 100 CALM      30.01F FOG
ABINGDON*      CLOUDY    57  57  99 CALM      30.02F FOG
BRISTOL        PTCLDY    56  54  93 CALM      30.01F
KNOXVILLE      PTCLDY    64  60  87 W5        29.99F
OAK RIDGE      MOCLDY    64  62  93 CALM      30.01F
CROSSVILLE     CLEAR     64  58  80 SW3       30.04F
NASHVILLE      PTCLDY    67  65  93 CALM      29.98R
$$

...KEY TO REMARKS...
VSB - VISIBILITY IN MILES
WCI - WIND CHILL INDEX
HX  - HEAT INDEX

$$



USA.gov is the U.S. government's official web portal to all federal, state and local government web resources and services.